Regional Weather Roundup
Issued by NWS Sterling, VA

Home | Current Version | Previous Version | Graphics & Text | Print | Product List | Glossary On
Versions: 1 2 3 4 5 6 7 8 9 10 11 12 13 14 15 16 17 18 19 20 21 22 23 24 25 26 27 28 29 30 31 32 33 34 35 36 37 38 39 40 41 42 43 44 45 46 47 48 49
000
ASUS41 KLWX 050610
RWRLWX

REGIONAL WEATHER ROUNDUP
NATIONAL WEATHER SERVICE BALTIMORE MD/WASHINGTON DC
200 AM EDT SUN JUL 05 2015

Note: "FAIR" indicates few or no clouds below 12,000 feet
with no significant weather and/or obstructions to visibility.
 TC=TEMPERATURE CELSIUS

 * =Non NWS site. Station does not report precipitation (e.g. rain,
    snow, etc.), thunder, or fog.

DCZ001-MDZ009-015-VAZ040>042-051-053>054-050700-
WASHINGTON METRO

CITY           SKY/WX    TMP DP  RH WIND       PRES   REMARKS
WASHINGTON NAT CLOUDY    74  69  85 N6        30.05S HAZE
DULLES         MOCLDY    69  66  90 N5        30.06R FOG
ANDREWS AFB    PTCLDY    68  68 100 N8        30.04S FOG
FT BELVOIR     FOG       68  68 100 CALM      30.04S VSB<1/4
QUANTICO       PTCLDY    71  67  87 SW3       30.05S
COLLEGE PARK*  CLOUDY    68  68 100 CALM      30.05S
LEESBURG*      MOCLDY    68  68 100 CALM      30.07S FOG
MANASSAS*        N/A    N/A N/A N/A MISG        N/A
GAITHERSBURG*  MOCLDY    64  63  94 CALM      30.10S VSB 1

$$

MDZ006>007-011-014-050700-
BALTIMORE METRO

CITY           SKY/WX    TMP DP  RH WIND       PRES   REMARKS
BWI AIRPORT    PTCLDY    65  64  97 CALM      30.05S FOG
MD SCIENCE CTR   N/A     70  66  87 MISG      30.05S
MARTIN STATE     N/A     68  68 100 CALM      30.06S FOG
ANNAPOLIS      MOCLDY    71  68  90 N3        30.04R FOG
FORT MEADE*      N/A     63  63 100 CALM      30.07S

$$

MDZ012-015-019>023-050700-
MARYLAND EASTERN SHORE

CITY           SKY/WX    TMP DP  RH WIND       PRES   REMARKS
OCEAN CITY     CLOUDY    70  68  93 NW3       30.02F FOG
SALISBURY      CLOUDY    70  70 100 N5        30.03S FOG
BAY BRIDGE AP*   N/A     70  68  94 CALM      30.04S
EASTON*        PTCLDY    70  70 100 CALM      30.08S FOG

$$

MDZ017>025-050700-
SOUTHERN MARYLAND

CITY           SKY/WX    TMP DP  RH WIND       PRES   REMARKS
PATUXENT RIVER CLOUDY    72  70  93 NW5       30.02S FOG
ST INIGOES     NOT AVBL
LEONARDTOWN*   CLOUDY    70  68  94 CALM      30.05S VSB 1/2

$$

MDZ003>005-050700-
NORTH CENTRAL MARYLAND

CITY           SKY/WX    TMP DP  RH WIND       PRES   REMARKS
FREDERICK*     FOG       64  64 100 CALM      30.09S VSB 1/2
HAGERSTOWN APT PTCLDY    66  63  90 CALM      30.07S FOG
WESTMINSTER*   FOG       64  64 100 CALM      30.08R VSB 1

$$

MDZ501>502-050700-
WESTERN MARYLAND

CITY           SKY/WX    TMP DP  RH WIND       PRES   REMARKS
OAKLAND*       MOCLDY    61 N/A N/A CALM      30.15S
CUMBERLAND*    MOCLDY    66  64  94 N5        30.11S

$$

VAZ025>031-050700-
SHENANDOAH VALLEY

CITY           SKY/WX    TMP DP  RH WIND       PRES   REMARKS
WINCHESTER*    MOCLDY    68  66  94 CALM      30.07S FOG
FRONT ROYAL*   CLOUDY    66  64  94 CALM      30.06S
LURAY*         FOG       68  68 100 CALM      30.07S VSB 1/2
NEW MARKET*    CLOUDY    65  65 100 CALM      30.06R
STAUNTON*      MOCLDY    69  65  89 CALM      30.10R
WAYNESBORO*    FAIR      66  65  97 CALM      30.09R

$$

WVZ021-048>050-054>055-050700-
EASTERN WEST VIRGINIA PANHANDLE

CITY           SKY/WX    TMP DP  RH WIND       PRES   REMARKS
MARTINSBURG    MOCLDY    65  63  93 CALM      30.07S FOG
PETERSBURG*      N/A     63  60  91 CALM      30.09S FOG

$$

VAZ036>039-050-050700-
CENTRAL FOOTHILLS

CITY           SKY/WX    TMP DP  RH WIND       PRES   REMARKS
CHARLOTTESVILL PTCLDY    66  65  96 CALM      30.06R FOG
CULPEPER*      FOG       65  65 100 CALM      30.06S VSB 1/4
ORANGE*        FOG       68  66  94 CALM      30.07R VSB 1/4
GORDONSVILLE*  FOG       64  64 100 CALM      30.05S VSB 3/4
WARRENTON*     FOG       67  67 100 CALM      30.05S VSB 1/4

$$

VAZ055>057-050700-
NORTH AND CENTRAL PIEDMONT

CITY           SKY/WX    TMP DP  RH WIND       PRES   REMARKS
FREDERICKSBRG* CLEAR     70  70 100 CALM      30.04S FOG
STAFFORD*      CLEAR     66  64  96 CALM      30.09R FOG

$$

NCZ024-NYZ072-PAZ021-071-VAZ022-071-050700-
OTHER REGIONAL OBSERVATIONS

CITY           SKY/WX    TMP DP  RH WIND       PRES   REMARKS
NEW YORK CITY  PTCLDY    69  58  67 CALM      30.07R
PHILADELPHIA   CLOUDY    71  57  61 N3        30.06R
PITTSBURGH     CLOUDY    62  55  77 CALM      30.09S
ROANOKE        PTCLDY    68  66  93 CALM      30.09S
RICHMOND       PTCLDY    70  68  94 CALM      30.04R FOG
RALEIGH        MOCLDY    74  68  81 CALM      30.05F

$$

ANZ530>537-050700-
MARINE OBSERVATIONS

STATION/POSITION TIME  TEMP    WIND        PRES
                       AIR SEA DIR/SP/G
                 (UTC) (F)     (DEG/KT/KT) (MB)
THOMAS PT LIGHT  NOT AVBL
BALT KEY BRIDGE  0500   71     350/  6/  7 1017.0R
COVE POINT       0500   72     310/  2/  3 1017.5R
LEWISETTA        0500   70 79  290/  4/  5 1016.6R
SOLOMONS ISLAND  0500      80                N/A
PINEY POINT      0500          320/  5/  6   N/A

$$




USA.gov is the U.S. government's official web portal to all federal, state and local government web resources and services.